Flag for U.S.A. Weather past 2 weeks in Cedar Rapids, Iowa, U.S.A.

Now
45 °F

Overcast.


Feels Like: 37 °F
Forecast: 39 / 47 °F
Wind: 17 mph from East

Location: Cedar Rapids Municipal Airport

Current Time: Apr 25, 2015 at 1:56:17 AM

Latest Report: Apr 25, 2015 at 12:52 AM


Visibility: 5 mi

Pressure: 29.71 "Hg

Humidity: N/A

Dew point: N/A

Location of Cedar RapidsLocation

Historic Weather in Cedar Rapids — Graph

°F

Cedar Rapids temperature yesterday

Maximum temperature yesterday: 55 °F (at 11:52 AM)
Minimum temperature yesterday: 39 °F (at 12:52 AM)
Average temperature yesterday: 46 °F

Past Weeks' High & Low Weather Summary

 TemperatureHumidityPressure
High78 °F (Apr 18, 2:52 PM)100% (Apr 11, 5:52 AM)30.30 "Hg (Apr 11, 5:52 AM)
Low24 °F (Apr 23, 3:52 AM)14% (Apr 23, 5:52 PM)29.42 "Hg (Apr 20, 2:52 AM)
Average51 °F60%29.95 "Hg
* Reported Apr 9 11:59 PM — Apr 24 11:52 PM, Cedar Rapids, Weather by CustomWeather, © 2015

Note: Actual official high and low records may vary slightly from our data, if they occured in-between our weather recording intervals... More about our weather records

Advertising

Cedar Rapids weather history for previous 24 hours

 ConditionsComfort  
Time TempWeatherWind HumidityBarometerVisibility
11:52 PM
Fri, Apr 24
45 °FPassing clouds.13 mphN/A29.73 "Hg6 mi
10:52 PM45 °FThundershowers. Overcast.16 mphN/A29.73 "Hg8 mi
9:52 PM46 °FThundershowers. Overcast.16 mphN/A29.77 "Hg10 mi
8:52 PM45 °FThundershowers. Overcast.20 mphN/A29.75 "Hg6 mi
7:52 PM45 °FThundershowers. Overcast.15 mphN/A29.76 "Hg5 mi
5:52 PM45 °FThundershowers. Overcast.18 mph100%29.80 "Hg10 mi
4:52 PM45 °FThundershowers. Overcast.20 mph90%29.81 "Hg9 mi
3:52 PM45 °FThundershowers. Fog.17 mph97%29.83 "Hg5 mi
2:52 PM46 °FThunderstorms. Fog.8 mph89%29.90 "Hg2 mi
1:52 PM48 °FLight rain. Mostly cloudy.14 mph77%29.83 "Hg4 mi
12:52 PM51 °FLight rain. Mostly cloudy.14 mph59%29.85 "Hg7 mi
11:52 AM55 °FOvercast.13 mph33%29.87 "Hg10 mi
10:52 AM53 °FOvercast.16 mph32%29.92 "Hg10 mi
9:52 AM52 °FOvercast.16 mph28%29.93 "Hg10 mi
8:52 AM51 °FMostly cloudy.13 mph29%29.96 "Hg10 mi
7:52 AM49 °FOvercast.13 mph31%29.98 "Hg10 mi
6:52 AM46 °FOvercast.9 mph37%30.01 "Hg10 mi
5:52 AM43 °FOvercast.6 mph51%30.02 "Hg10 mi
4:52 AM45 °FOvercast.6 mph44%30.00 "Hg10 mi
3:52 AM43 °FOvercast.5 mph47%30.02 "Hg10 mi
2:52 AM41 °FClear.6 mph51%30.02 "Hg10 mi
1:52 AM40 °FOvercast.5 mph51%30.03 "Hg10 mi
Weather by CustomWeather, © 2015

See weather overviewHow to use our weather pages